Regional Weather Roundup
Issued by NWS

Home | Current Version | Previous Version | Text Only | Print | Product List | Glossary On
Versions: 1 2 3 4 5 6 7 8 9 10 11 12 13 14 15 16 17 18 19 20 21 22 23 24 25 26 27 28 29 30 31 32 33 34 35 36 37 38 39 40 41 42 43 44 45 46 47 48 49 50
000
ASUS45 KPSR 231710
RWRAZ

ARIZONA HOURLY REGIONAL WEATHER ROUNDUP
NATIONAL WEATHER SERVICE PHOENIX AZ
1000 AM MST THU MAR 23 2017

NOTE: FAIR INDICATES FEW OR NO CLOUDS BELOW 12,000 FEET WITH NO
SIGNIFICANT WEATHER AND/OR OBSTRUCTIONS TO VISIBILITY.

AZZ001>003-036-231800-
NORTHWEST ARIZONA

CITY           SKY/WX    TMP DP  RH WIND       PRES   REMARKS
BULLHEAD CITY  MOSUNNY   64  36  34 S9        29.93R
KINGMAN        SUNNY     51  27  39 SW17      29.93R
$$

AZZ004>008-015-016-018-231800-
NORTH CENTRAL ARIZONA

CITY           SKY/WX    TMP DP  RH WIND       PRES   REMARKS
GRAND CANYON   PTSUNNY   36  33  89 SW13      29.89R WCI  27
WILLIAMS       PTSUNNY   34  30  86 S13G18    29.91S WCI  25
PRESCOTT       PTSUNNY   42  34  73 SW10      29.94R
FLAGSTAFF      FLURRIES  32  30  92 SW5       29.91S WCI  27
PAYSON         CLOUDY    43  37  81 VRB7      29.98R
PAGE           PTSUNNY   49  32  52 CALM      29.82S
$$

AZZ009>014-017-231800-
NORTHEAST ARIZONA

CITY           SKY/WX    TMP DP  RH WIND       PRES   REMARKS
WINSLOW        CLOUDY    46  37  71 SW6       29.91R
SAINT JOHNS    LGT RAIN  36  35  96 W18G28    29.92R WCI  26
WINDOW ROCK    CLOUDY    42  34  73 SW10      29.86R
SHOW LOW       FLURRIES  32  30  93 W14       29.96S WCI  22
$$

AZZ023-231800-
GREATER PHOENIX AREA

CITY           SKY/WX    TMP DP  RH WIND       PRES   REMARKS
PHOENIX        PTSUNNY   61  46  57 S9G18     29.96R
BUCKEYE        SUNNY     59  48  67 SW6       29.98R
GLENDALE       PTSUNNY   59  46  63 SE6       29.99R
LUKE AFB       MOSUNNY   60  46  59 VRB6      29.96R
DEER VALLEY    CLOUDY    57  48  72 S8        29.96R
SCOTTSDALE     PTSUNNY   57  47  69 SE7       29.98R
MESA-FALCON    MOSUNNY  N/A N/A N/A SE12      29.95R
MESA-GATEWAY   PTSUNNY   57  48  72 SE10      30.00R
CHANDLER       PTSUNNY   59  50  72 SE12      29.98R
$$

AZZ027-028-231800-
SOUTHWEST MARICOPA COUNTY AND PINAL COUNTY

CITY           SKY/WX    TMP DP  RH WIND       PRES   REMARKS
CASA GRANDE    NOT AVBL
GILA BEND      SUNNY     63  40  44 SW13G21   29.98R
$$

AZZ503-504-507>509-231800-
SOUTHEAST ARIZONA

CITY           SKY/WX    TMP DP  RH WIND       PRES   REMARKS
TUCSON         MOSUNNY   57  39  51 W12       30.04R
DAVIS-MONTHAN  CLOUDY    55  39  54 W7        30.02R
RYAN FIELD     MOSUNNY   57  39  51 W14       30.04R
NOGALES        LGT RAIN  47  41  80 W6G17     30.04R
SIERRA VISTA   PTSUNNY   52  28  40 W24G30    30.02R
DOUGLAS        PTSUNNY   57  37  47 W24G36    29.99R
SAFFORD        PTSUNNY   49  44  83 NW22G32   29.94S
$$

AZZ020-021-025-026-031-231800-
SOUTHWEST ARIZONA

CITY           SKY/WX    TMP DP  RH WIND       PRES   REMARKS
YUMA           SUNNY     65  40  39 W17G32    30.01R
$$

CAZ031-033-041-043-047-048-061-231800-
SOUTHERN CALIFORNIA

CITY           SKY/WX    TMP DP  RH WIND       PRES   REMARKS
DOWNTOWN L.A.  SUNNY     64  39  39 VRB3      30.08R
L.A. AIRPORT   MOSUNNY   63  38  39 W15G21    30.10R
SAN DIEGO      PTSUNNY   62  47  57 W12       30.14R
BURBANK        SUNNY     58  36  43 W10       30.07R
ONTARIO        MOSUNNY   56  46  69 CALM      30.08R
RIVERSIDE      MOSUNNY   58  47  66 W5        30.09R
PALM SPRINGS   SUNNY     68  34  28 CALM      30.00R
EL CENTRO NAS  MOSUNNY   67  35  30 W22G30    30.04R
IMPERIAL       SUNNY     66  39  37 W17G23    30.02R
BLYTHE         SUNNY     66  36  32 W17       29.98R
NEEDLES        SUNNY     67  34  29 W15G21    29.93R
$$

NVZ020-UTZ003-231800-
SOUTHERN NEVADA-UTAH

CITY           SKY/WX    TMP DP  RH WIND       PRES   REMARKS
LAS VEGAS      PTSUNNY   61  32  33 NW16G28   29.90R
SALT LAKE CITY RAIN      40  37  89 NW17      29.82R FOG     WCI  31
$$

NMZ009-TXZ055-231800-
NEW MEXICO-WEST TEXAS

CITY           SKY/WX    TMP DP  RH WIND       PRES   REMARKS
ALBUQUERQUE    MOSUNNY   65  22  19 SW20G31   29.82F
EL PASO        MOSUNNY   81  10   7 S29G39    29.82F
$$


........................KEY........................
SKY/WX - SKY CONDITION/WEATHER
TMP    - TEMPERATURE IN FAHRENHEIT
DP     - DEW POINT IN FAHRENHEIT
RH     - RELATIVE HUMIDITY IN PERCENT
WIND   - DIRECTION AND SPEED IN MILES PER HOUR (MPH)
VRB    - VARIABLE WIND DIRECTION
PRES   - MEAN SEA LEVEL PRESSURE IN INCHES OF MERCURY
         F - FALLING PRESSURE   R - RISING PRESSURE
         S - STEADY PRESSURE
VSB    - VISIBILITY IN MILES
HX     - HEAT INDEX IN FAHRENHEIT
WCI    - WIND CHILL INDEX IN FAHRENHEIT
TC     - TEMPERATURE IN CELSIUS WHICH IS ALSO KNOWN AS
         TEMPERATURE IN CENTIGRADE
AFB    - AIR FORCE BASE
         LUKE AFB IS LUKE AIR FORCE BASE
         DAVIS-MONTHAN IS DAVIS-MONTHAN AIR FORCE BASE
NAS    - NAVAL AIR STATION
         EL CENTRO NAS IS EL CENTRO NAVAL AIR STATION
N/A    - NOT AVAILABLE




USA.gov is the U.S. government's official web portal to all federal, state and local government web resources and services.